Tomorrow-S1

operational
NORAD ID: 60479 Int'l Des: 2024-149 Owner: TOMIO Country: US
LEOCIRCULARRETROGRADESSO

About Tomorrow-S1

Description loading...

Live Position

Loading 3D Globe...

Upcoming Passes

Altitude History

Altitude vs Time

uPlot chart will show altitude changes over time

Two-Line Element Set

1 60479U 24149M 26063.16967938 .00013910 00000-0 46565-3 0 9995
2 60479 97.3810 144.0764 0001395 237.6228 122.4878 15.31067798 86014
Epoch: Mar 4, 2026 • Age: 20 hours

Current Status

Altitude 482.0 km
Velocity 7.63 km/s
Sub-Earth Point 51.75°N, 32.97°E
Launch Date Aug 16, 2024
Age 1.5 years
Type other

Technical Details

Classification Payload
Mass 12.00 kg
Dry Mass 12.00 kg
Total Mass 12.00 kg
Length 0.30 m
Diameter 0.20 m
Span 1.20 m
Shape Box+2 pan
Manufacturer BLCAN
Bus Type Cubesat 6U
Phase Status In Orbit
Owner/State TOMIO/US

Large Constellations

Loading constellations...